EW0941 Weather Reports


Display with metric or nautical units.
time (UTC)temp
F
wind
direction
speed
MPH
gust
MPH
rain 1hr
in
rain 24hr
in
rain mn
in
humidity
%
barometer
mb
20260504222035 66 280 0.0 0.0 0.00 0.00 0.00 47 1005.1
20260504221538 66 281 0.0 0.0 0.00 0.00 0.00 45 1005.1
20260504221037 66 281 0.0 0.0 0.00 0.00 0.00 44 1005.1
20260504220534 66 281 0.0 0.0 0.00 0.00 0.00 44 1005.1
20260504220035 66 281 0.0 0.0 0.00 0.00 0.00 45 1005.0
20260504215535 66 281 0.0 0.0 0.00 0.00 0.00 45 1005.1
20260504215034 66 271 0.0 0.0 0.00 0.00 0.00 43 1005.1
20260504214536 66 271 0.0 0.0 0.00 0.00 0.00 45 1005.1
20260504214033 66 280 0.0 0.0 0.00 0.00 0.00 45 1005.1
20260504213534 66 275 0.0 0.0 0.00 0.00 0.00 45 1005.1
20260504213048 66 275 0.0 0.0 0.00 0.00 0.00 47 1005.1
20260504212533 66 319 0.0 0.0 0.00 0.00 0.00 45 1005.1
20260504212034 66 323 0.0 0.0 0.00 0.00 0.00 45 1005.0
20260504211535 66 319 0.0 0.0 0.00 0.00 0.00 46 1005.0
20260504211034 66 207 0.0 0.0 0.00 0.00 0.00 46 1005.1
20260504210536 67 198 0.0 0.0 0.00 0.00 0.00 46 1005.1
20260504210038 67 234 0.0 0.0 0.00 0.00 0.00 45 1005.1
20260504205533 67 51 0.0 0.0 0.00 0.00 0.00 46 1005.1
20260504205036 66 250 0.0 0.0 0.00 0.00 0.00 46 1005.0
20260504204542 66 245 0.0 0.0 0.00 0.00 0.00 45 1005.0
20260504204033 66 334 0.0 0.0 0.00 0.00 0.00 46 1005.1
20260504203533 66 197 0.0 0.0 0.00 0.00 0.00 49 1005.1
20260504203030 66 275 0.0 0.0 0.00 0.00 0.00 48 1005.2
20260504202530 66 289 0.0 0.0 0.00 0.00 0.00 47 1005.1
20260504202029 66 252 0.0 0.0 0.00 0.00 0.00 48 1005.2
20260504201530 65 233 0.0 0.0 0.00 0.00 0.00 52 1005.2
20260504201032 65 295 0.0 0.0 0.00 0.00 0.00 53 1005.2
20260504200530 65 295 0.0 0.0 0.00 0.00 0.00 50 1005.4
20260504200033 65 326 0.0 0.0 0.00 0.00 0.00 53 1005.4
20260504195529 65 326 0.0 0.0 0.00 0.00 0.00 51 1005.5
20260504195029 65 338 0.0 0.0 0.00 0.00 0.00 53 1005.5
20260504194529 65 254 0.0 0.0 0.00 0.00 0.00 53 1005.6
20260504194028 64 326 0.0 0.0 0.00 0.00 0.00 53 1005.5
20260504193529 64 193 0.0 0.0 0.00 0.00 0.00 53 1005.7
20260504193029 64 53 0.0 0.0 0.00 0.00 0.00 52 1005.6
20260504192528 64 288 0.0 0.0 0.00 0.00 0.00 53 1005.6
20260504192028 64 311 0.0 0.0 0.00 0.00 0.00 53 1005.6
20260504191528 64 313 0.0 0.0 0.00 0.00 0.00 53 1005.6
20260504191028 64 21 0.0 0.0 0.00 0.00 0.00 54 1005.6
20260504190528 63 355 0.0 0.0 0.00 0.00 0.00 54 1005.7
20260504190028 63 360 0.0 0.0 0.00 0.00 0.00 55 1005.7
20260504185530 63 355 0.0 0.0 0.00 0.00 0.00 56 1005.9
20260504185027 62 336 0.0 0.0 0.00 0.00 0.00 59 1005.8
20260504184527 61 279 0.0 0.0 0.00 0.00 0.00 62 1005.8
20260504184027 60 324 0.0 0.0 0.00 0.00 0.00 59 1005.9
20260504183527 60 313 0.0 0.0 0.00 0.00 0.00 60 1006.0
20260504183026 60 326 0.0 0.0 0.00 0.00 0.00 59 1005.9
20260504182526 61 307 0.0 1.0 0.00 0.00 0.00 57 1005.9
20260504182026 61 307 0.0 1.0 0.00 0.00 0.00 57 1005.8
20260504181528 62 271 0.0 0.0 0.00 0.00 0.00 56 1005.9
20260504181029 62 264 0.0 2.0 0.00 0.00 0.00 55 1005.9
20260504180526 62 294 0.0 2.0 0.00 0.00 0.00 53 1005.8
20260504180026 62 286 0.0 0.0 0.00 0.00 0.00 51 1005.8
20260504175525 62 306 0.0 0.0 0.00 0.00 0.00 48 1005.6
20260504175025 62 308 0.0 1.0 0.00 0.00 0.00 49 1005.7
20260504174525 62 267 0.0 1.0 0.00 0.00 0.00 46 1005.8
20260504174025 62 46 0.0 1.0 0.00 0.00 0.00 46 1005.8
20260504173524 62 285 0.0 2.0 0.00 0.00 0.00 46 1005.8
20260504173024 62 273 0.0 2.0 0.00 0.00 0.00 46 1005.7
20260504172525 62 231 0.0 1.0 0.00 0.00 0.00 46 1005.7
20260504172027 62 284 0.0 1.0 0.00 0.00 0.00 49 1005.5
20260504171523 61 275 0.0 0.0 0.00 0.00 0.00 50 1005.5
20260504171023 62 171 0.0 0.0 0.00 0.00 0.00 55 1005.4
20260504170523 62 171 0.0 0.0 0.00 0.00 0.00 53 1005.3
20260504151008 62 207 0.0 0.0 0.00 0.00 0.00 54 1006.4
20260504150505 62 254 0.0 0.0 0.00 0.00 0.00 55 1006.6
20260504141052 56 281 0.0 0.0 0.00 0.02 0.00 64 1007.2
20260504140550 56 217 0.0 0.0 0.00 0.02 0.00 66 1007.3
20260504130542 54 219 0.0 1.0 0.00 0.04 0.00 67 1008.1
20260504110508 36 321 0.0 0.0 0.00 0.04 0.00 89 1008.5
20260504100501 34 321 0.0 0.0 0.00 0.04 0.00 89 1008.2
20260504090105 31 321 0.0 0.0 0.00 0.04 0.00 93 1008.1
20260504081555 31 321 0.0 0.0 0.00 0.04 0.00 92 1008.1
20260504081055 31 321 0.0 0.0 0.00 0.04 0.00 92 1008.0
20260504080554 31 321 0.0 0.0 0.00 0.04 0.00 92 1008.1
20260504050537 33 321 0.0 0.0 0.00 0.04 0.00 87 1007.9
20260504045536 33 321 0.0 0.0 0.00 0.04 0.00 86 1007.9
20260504045036 34 321 0.0 0.0 0.00 0.04 0.00 86 1007.9
20260504044543 34 321 0.0 0.0 0.00 0.04 0.00 86 1008.0
20260504044035 34 321 0.0 0.0 0.00 0.04 0.00 86 1007.9
20260504043534 34 321 0.0 0.0 0.00 0.04 0.00 86 1007.9
20260504043035 34 321 0.0 0.0 0.00 0.04 0.00 86 1007.9
20260504042534 34 321 0.0 0.0 0.00 0.04 0.00 86 1008.0
20260504042033 34 321 0.0 0.0 0.00 0.04 0.00 85 1008.0
20260504041532 34 321 0.0 0.0 0.00 0.04 0.00 85 1008.0
20260504041031 35 321 0.0 0.0 0.00 0.04 0.00 84 1007.9
20260504040530 35 321 0.0 0.0 0.00 0.04 0.00 85 1007.9
20260504040036 35 321 0.0 0.0 0.00 0.04 0.04 84 1007.8
20260504035528 35 321 0.0 0.0 0.00 0.04 0.04 84 1007.8
20260504035027 35 321 0.0 0.0 0.00 0.04 0.04 84 1007.8
20260504034527 36 321 0.0 0.0 0.00 0.04 0.04 83 1007.7
20260504034026 36 321 0.0 0.0 0.00 0.04 0.04 83 1007.7
20260504033527 36 321 0.0 0.0 0.00 0.04 0.04 82 1007.7
20260504033024 36 321 0.0 0.0 0.00 0.04 0.04 81 1007.6
20260504032523 37 321 0.0 0.0 0.00 0.04 0.04 80 1007.6
20260504032028 37 321 0.0 0.0 0.00 0.04 0.04 79 1007.6
20260504031527 37 321 0.0 0.0 0.00 0.04 0.04 79 1007.6
20260504031021 37 321 0.0 0.0 0.00 0.04 0.04 77 1007.6
20260504030520 37 321 0.0 0.0 0.00 0.04 0.04 77 1007.7
20260504030022 38 321 0.0 0.0 0.00 0.06 0.04 76 1007.6
20260504025518 38 321 0.0 0.0 0.00 0.06 0.04 76 1007.6
20260504025018 38 321 0.0 0.0 0.00 0.06 0.04 75 1007.6
20260504024516 39 321 0.0 0.0 0.00 0.06 0.04 73 1007.6
20260504024016 39 321 0.0 0.0 0.00 0.06 0.04 72 1007.6
20260504023514 39 321 0.0 0.0 0.00 0.06 0.04 71 1007.6
20260504023015 40 321 0.0 0.0 0.00 0.06 0.04 71 1007.6
20260504022514 40 321 0.0 0.0 0.00 0.06 0.04 70 1007.6
20260504022011 40 321 0.0 0.0 0.00 0.06 0.04 69 1007.5
20260504021512 41 321 0.0 0.0 0.00 0.06 0.04 68 1007.6
20260504021009 41 321 0.0 0.0 0.00 0.06 0.04 67 1007.5
20260504020509 41 321 0.0 0.0 0.00 0.06 0.04 66 1007.5
20260504020016 42 321 0.0 0.0 0.00 0.10 0.04 66 1007.4
20260504015509 42 321 0.0 0.0 0.00 0.10 0.04 65 1007.4
20260504015010 42 321 0.0 0.0 0.00 0.10 0.04 65 1007.4
20260504014508 43 321 0.0 0.0 0.00 0.10 0.04 64 1007.4
20260504014008 43 321 0.0 0.0 0.00 0.10 0.04 63 1007.3
20260504013507 43 321 0.0 0.0 0.00 0.10 0.04 62 1007.3
20260504013011 43 321 0.0 0.0 0.00 0.10 0.04 62 1007.2
20260504012511 43 320 0.0 0.0 0.00 0.10 0.04 61 1007.1
20260504012007 43 297 0.0 0.0 0.00 0.10 0.04 61 1007.1
20260504011507 43 298 0.0 0.0 0.00 0.10 0.04 61 1007.1
20260504011011 44 298 0.0 0.0 0.00 0.10 0.04 61 1006.9
20260504010512 44 264 0.0 0.0 0.00 0.10 0.04 61 1006.8
20260504010007 44 264 0.0 0.0 0.00 0.11 0.04 58 1006.8
20260504005506 45 263 0.0 0.0 0.00 0.11 0.04 56 1006.8
20260504005007 45 263 0.0 0.0 0.00 0.11 0.04 56 1006.6
20260504004507 45 263 0.0 0.0 0.00 0.11 0.04 56 1006.5
20260504004006 45 295 0.0 0.0 0.00 0.11 0.04 56 1006.4
20260504003505 45 285 0.0 0.0 0.00 0.11 0.04 55 1006.3
20260504003006 45 257 0.0 0.0 0.00 0.11 0.04 55 1006.2
20260504002505 46 302 0.0 0.0 0.00 0.11 0.04 55 1006.1
20260504002005 46 274 0.0 0.0 0.00 0.11 0.04 54 1006.1
20260504001505 46 209 0.0 0.0 0.00 0.11 0.04 54 1006.0
20260504001008 46 302 0.0 0.0 0.00 0.11 0.04 53 1005.9
20260504000509 46 302 0.0 1.0 0.00 0.11 0.04 53 1005.9
20260504000006 47 302 0.0 1.0 0.00 0.11 0.04 53 1005.7
20260503235506 47 309 0.0 0.0 0.00 0.11 0.04 52 1005.7
20260503235005 47 315 0.0 0.0 0.00 0.11 0.04 52 1005.5
20260503234504 47 319 0.0 0.0 0.00 0.11 0.04 50 1005.5
20260503234004 47 321 0.0 0.0 0.00 0.11 0.04 49 1005.4
20260503233503 48 316 0.0 1.0 0.00 0.11 0.04 50 1005.4
20260503233003 48 302 0.0 1.0 0.00 0.11 0.04 48 1005.3
20260503232503 48 355 0.0 1.0 0.00 0.11 0.04 48 1005.1
20260503232004 48 11 0.0 1.0 0.00 0.11 0.04 48 1005.1
20260503231504 49 323 0.0 13.0 0.00 0.11 0.04 47 1005.0
20260503231002 49 336 0.0 13.0 0.00 0.11 0.04 49 1004.8
20260503230502 49 294 0.0 0.0 0.00 0.11 0.04 49 1004.7
20260503230002 49 289 0.0 2.0 0.00 0.11 0.04 50 1004.6
20260503225504 49 280 0.0 2.0 0.00 0.11 0.04 49 1004.6
20260503225002 49 308 0.0 2.0 0.00 0.11 0.04 47 1004.5
20260503224501 50 9 0.0 2.0 0.00 0.11 0.04 48 1004.4
20260503224003 50 328 0.0 1.0 0.00 0.11 0.04 48 1004.4
20260503223602 50 116 0.0 1.0 0.00 0.11 0.04 48 1004.2
20260503223500 50 313 0.0 1.0 0.00 0.11 0.04 47 1004.2
20260503223004 51 340 0.0 11.0 0.00 0.11 0.04 48 1004.2
20260503222501 51 273 0.0 11.0 0.00 0.11 0.04 47 1004.0